Flag for Canada Weather past 2 weeks in Norman Wells, Northwest Territories, Canada

Now
-27 °F

Sunny.


Feels Like: -27 °F
Forecast: -36 / -28 °F
Wind: No wind

Location: Norman Wells

Current Time: Jan 27, 2015 at 4:13:39 PM

Latest Report: Jan 27, 2015 at 3:00 PM


Visibility: 30 mi

Pressure: 30.34 "Hg

Humidity: 67%

Dew point: -35 °F

Location of Norman WellsLocation

Historic Weather in Norman Wells — Graph

°F

Norman Wells temperature yesterday

Maximum temperature yesterday: -11 °F (at 12:00 AM)
Minimum temperature yesterday: -31 °F (at 9:00 PM)
Average temperature yesterday: -17 °F

Past Weeks' High & Low Weather Summary

 TemperatureHumidityPressure
High9 °F (Jan 21, 4:00 AM)85% (Jan 12, 3:00 PM)30.36 "Hg (Jan 12, 3:00 PM)
Low-38 °F (Jan 27, 11:00 AM)57% (Jan 26, 8:00 AM)29.23 "Hg (Jan 16, 3:00 AM)
Average-4 °F76%29.86 "Hg
* Reported Jan 12 3:00 PM — Jan 27 3:00 PM, Norman Wells, Weather by CustomWeather, © 2014

Note: Actual official high and low records may vary slightly from our data, if they occured in-between our weather recording intervals... More about our weather records

Advertising

Norman Wells weather history for previous 24 hours

 ConditionsComfort  
Time TempWeatherWind HumidityBarometerVisibility
3:00 PM
Jan 27
-27 °FSunny.No wind67%30.34 "Hg30 mi
2:00 PM-31 °FSunny.3 mph74%30.34 "Hg30 mi
1:00 PM-31 °FPassing clouds.No wind74%30.33 "Hg30 mi
12:00 PM-33 °FPassing clouds.3 mph66%30.32 "Hg30 mi
11:00 AM-38 °FPassing clouds.3 mph65%30.30 "Hg30 mi
10:00 AM-31 °FPassing clouds.No wind67%30.28 "Hg30 mi
9:00 AM-36 °FPassing clouds.No wind66%30.26 "Hg30 mi
8:00 AM-35 °FClear.3 mph66%30.25 "Hg30 mi
7:00 AM-27 °FClear.6 mph74%30.24 "Hg30 mi
6:00 AM-36 °FClear.2 mph66%30.26 "Hg30 mi
5:00 AM-36 °FClear.5 mph66%30.26 "Hg30 mi
4:00 AM-33 °FClear.5 mph66%30.27 "Hg30 mi
3:00 AM-33 °FClear.5 mph74%30.28 "Hg30 mi
2:00 AM-27 °FClear.7 mph67%30.29 "Hg30 mi
1:00 AM-31 °FPassing clouds.6 mph74%30.30 "Hg30 mi
12:00 AM-27 °FPassing clouds.7 mph74%30.31 "Hg30 mi
11:00 PM
Jan 26
-26 °FPassing clouds.8 mph75%30.32 "Hg30 mi
10:00 PM-29 °FPassing clouds.6 mph74%30.32 "Hg30 mi
9:00 PM-31 °FPassing clouds.3 mph67%30.32 "Hg30 mi
8:00 PM-27 °FPassing clouds.2 mph67%30.32 "Hg30 mi
7:00 PM-22 °FPassing clouds.No wind75%30.31 "Hg30 mi
6:00 PM-22 °FPassing clouds.6 mph75%30.31 "Hg30 mi
5:00 PM-18 °FPassing clouds.9 mph75%30.31 "Hg20 mi
4:00 PM-17 °FBroken clouds.9 mph69%30.29 "Hg15 mi
Weather by CustomWeather, © 2014

See weather overviewHow to use our weather pages